Santuari del Far - Susqueda





Hora UTC 23:40
Temperatura 11.3 ºC
Humitat 80.0 %
Pressió 1025.5 hPa
Pluja 0.0 mm
Velocitat vent 4.8 km/h
Direcció vent N

Dades diàries 2020-10-29



Hora UTC (hivern +1h; estiu +2h)
Temperatura (ºC) Humitat (%) Pressió (hPa) Velocitat vent (km/h) Precipitació (mm)
Hora UTC Aire Humitat Pressió Vel. Dir. Vel. Max Dir. Intent. màx 5 min.
00:05 8.8 89.0 1022.9 0.0 N 0.0 0.0
00:10 8.7 90.0 1022.9 3.2 N 3.2 0.0
00:15 8.7 90.0 1023.0 1.6 N 3.2 0.0
00:20 8.7 91.0 1022.9 0.0 N 3.2 0.0
00:25 8.7 90.0 1022.9 1.6 N 4.8 0.0
00:30 8.6 91.0 1022.8 0.0 N 4.8 0.0
00:35 8.4 91.0 1022.8 1.6 N 3.2 0.0
00:40 8.3 91.0 1022.9 0.0 N 3.2 0.0
00:45 8.3 91.0 1023.0 1.6 N 3.2 0.0
00:50 8.3 91.0 1023.2 0.0 N 3.2 0.0
00:55 8.2 91.0 1023.2 0.0 N 1.6 0.0
00:55 8.2 91.0 1023.2 1.6 N 3.2 0.0
01:00 8.3 92.0 1023.2 0.0 N 3.2 0.0
01:05 8.3 91.0 1023.2 1.6 N 3.2 0.0
01:10 8.2 91.0 1023.2 0.0 N 1.6 0.0
01:15 8.2 92.0 1023.1 0.0 N 3.2 0.0
01:20 8.3 92.0 1023.1 0.0 N 3.2 0.0
01:25 8.3 92.0 1023.2 0.0 N 1.6 0.0
01:30 8.3 92.0 1023.1 1.6 N 3.2 0.0
01:35 8.3 92.0 1023.1 0.0 N 3.2 0.0
01:40 8.3 92.0 1023.2 0.0 N 3.2 0.0
01:45 8.3 92.0 1022.8 1.6 N 3.2 0.0
01:50 8.3 92.0 1022.5 1.6 N 3.2 0.0
01:55 8.2 92.0 1022.1 1.6 N 4.8 0.0
02:00 8.1 91.0 1022.5 1.6 N 4.8 0.0
02:05 7.8 91.0 1022.7 4.8 N 4.8 0.0
02:10 7.9 92.0 1022.9 0.0 N 6.4 0.0
02:15 7.9 92.0 1022.8 0.0 N 6.4 0.0
02:20 7.9 92.0 1022.6 1.6 N 4.8 0.0
02:25 8.1 92.0 1022.5 0.0 N 4.8 0.0
02:30 8.1 92.0 1022.7 1.6 N 4.8 0.0
02:35 8.1 91.0 1022.9 1.6 N 4.8 0.0
02:40 8.1 91.0 1022.8 1.6 N 3.2 0.0
02:45 8.2 91.0 1022.9 0.0 N 3.2 0.0
02:50 8.2 91.0 1023.0 1.6 N 4.8 0.0
02:55 8.3 92.0 1023.1 0.0 N 4.8 0.0
03:00 8.3 92.0 1023.0 3.2 N 8.0 0.0
03:05 8.4 91.0 1023.0 0.0 N 8.0 0.0
03:10 8.4 91.0 1022.8 3.2 N 4.8 0.0
03:15 8.4 91.0 1022.7 1.6 N 4.8 0.0
03:20 8.4 91.0 1022.8 0.0 N 4.8 0.0
03:25 8.4 91.0 1023.0 1.6 N 4.8 0.0
03:30 8.6 91.0 1023.0 3.2 N 4.8 0.0
03:35 8.6 90.0 1023.0 1.6 N 4.8 0.0
03:40 8.7 90.0 1023.1 1.6 N 4.8 0.0
03:45 8.6 90.0 1023.2 3.2 N 4.8 0.0
03:50 8.6 90.0 1023.3 3.2 N 8.0 0.0
03:55 8.6 90.0 1023.4 1.6 N 8.0 0.0
04:00 8.7 90.0 1023.4 1.6 N 8.0 0.0
04:05 8.7 90.0 1023.5 0.0 N 4.8 0.0
04:10 8.7 90.0 1023.5 3.2 N 4.8 0.0
04:15 8.7 90.0 1023.5 0.0 N 4.8 0.0
04:20 8.7 90.0 1023.4 1.6 N 3.2 0.0
04:25 8.6 90.0 1023.5 0.0 N 3.2 0.0
04:30 8.6 90.0 1023.5 1.6 N 3.2 0.0
04:35 8.5 91.0 1023.6 3.2 N 8.0 0.0
04:40 8.6 91.0 1023.6 4.8 N 8.0 0.0
04:45 8.6 91.0 1023.5 3.2 N 6.4 0.0
04:50 8.6 92.0 1023.6 4.8 N 8.0 0.0
04:55 8.6 92.0 1023.7 3.2 N 8.0 0.0
05:00 8.6 93.0 1023.8 3.2 N 8.0 0.0
05:05 8.6 93.0 1023.7 3.2 N 8.0 0.0
05:10 8.6 93.0 1023.5 3.2 N 6.4 0.0
05:15 8.6 93.0 1023.5 3.2 N 4.8 0.0
05:20 8.5 93.0 1023.6 1.6 N 4.8 0.0
05:25 8.4 93.0 1023.8 1.6 N 3.2 0.0
05:30 8.4 93.0 1023.8 3.2 N 3.2 0.0
05:35 8.4 93.0 1023.6 0.0 N 4.8 0.0
05:40 8.4 93.0 1023.6 0.0 N 4.8 0.0
05:45 8.4 93.0 1023.5 1.6 N 3.2 0.0
05:50 8.3 93.0 1023.7 3.2 N 4.8 0.0
05:55 8.3 93.0 1023.8 3.2 N 6.4 0.0
06:00 8.3 94.0 1023.7 1.6 N 6.4 0.0
06:05 8.3 94.0 1023.7 1.6 N 4.8 0.0
06:10 8.3 94.0 1023.7 1.6 N 4.8 0.0
06:15 8.3 94.0 1023.6 4.8 N 4.8 0.0
06:20 8.3 94.0 1023.7 1.6 N 4.8 0.0
06:25 8.4 94.0 1023.7 1.6 N 4.8 0.0
06:30 8.4 94.0 1023.8 1.6 N 4.8 0.0
06:35 8.4 94.0 1023.8 1.6 N 4.8 0.0
06:40 8.4 94.0 1023.8 1.6 N 6.4 0.0
06:45 8.4 94.0 1024.1 1.6 N 8.0 0.0
06:50 8.4 95.0 1024.1 0.0 N 6.4 0.0
06:55 8.4 95.0 1024.2 1.6 N 3.2 0.0
07:00 8.4 95.0 1024.3 1.6 N 4.8 0.0
07:05 8.4 95.0 1024.5 1.6 N 4.8 0.0
07:10 8.4 95.0 1024.5 1.6 N 6.4 0.0
07:15 8.4 95.0 1024.5 0.0 N 4.8 0.0
07:20 8.4 95.0 1024.6 0.0 N 6.4 0.0
07:25 8.5 95.0 1024.5 1.6 N 6.4 0.0
07:30 8.6 95.0 1024.3 3.2 N 6.4 0.0
07:35 8.6 95.0 1024.3 1.6 N 6.4 0.0
07:40 8.6 95.0 1024.5 4.8 N 4.8 0.0
07:45 8.6 95.0 1024.5 3.2 N 6.4 0.0
07:50 8.6 94.0 1024.5 1.6 N 6.4 0.0
07:55 8.7 94.0 1024.5 3.2 N 4.8 0.0
08:00 8.7 94.0 1024.6 0.0 N 4.8 0.0
08:05 8.8 94.0 1024.6 0.0 N 6.4 0.0
08:10 8.9 95.0 1024.6 3.2 N 6.4 0.0
08:20 9.2 94.0 1024.5 3.2 N 4.8 0.0
08:25 9.2 94.0 1024.8 1.6 N 4.8 0.0
08:30 9.4 93.0 1024.9 0.0 N 3.2 0.0
08:35 9.6 93.0 1024.9 1.6 N 4.8 0.0
08:40 9.8 93.0 1024.9 0.0 N 6.4 0.0
08:45 9.9 92.0 1025.1 1.6 N 3.2 0.0
08:50 9.9 92.0 1025.2 3.2 N 4.8 0.0
08:55 9.8 91.0 1025.4 0.0 N 4.8 0.0
09:00 9.8 91.0 1025.5 0.0 N 4.8 0.0
09:05 9.8 91.0 1025.6 0.0 N 4.8 0.0
09:10 9.7 90.0 1025.8 1.6 N 4.8 0.0
09:15 9.7 90.0 1025.9 1.6 N 4.8 0.0
09:20 9.7 90.0 1025.9 0.0 N 4.8 0.0
09:25 9.7 90.0 1025.9 0.0 N 3.2 0.0
09:30 9.8 90.0 1025.9 1.6 N 1.6 0.0
09:35 9.9 90.0 1026.0 0.0 N 3.2 0.0
09:40 10.1 90.0 1025.7 0.0 N 3.2 0.0
09:45 10.3 90.0 1025.8 1.6 N 3.2 0.0
09:50 10.4 90.0 1025.7 1.6 N 4.8 0.0
09:55 10.6 89.0 1025.4 1.6 N 4.8 0.0
10:00 10.6 88.0 1025.6 0.0 N 6.4 0.0
10:05 10.6 89.0 1025.4 3.2 N 6.4 0.0
10:10 11.0 89.0 1025.6 4.8 N 8.0 0.0
10:15 11.3 87.0 1025.5 3.2 N 8.0 0.0
10:20 11.7 87.0 1025.5 1.6 N 8.0 0.0
10:25 11.9 85.0 1025.5 3.2 N 9.7 0.0
10:30 12.0 83.0 1025.6 4.8 N 9.7 0.0
10:30 11.8 83.0 1025.4 1.6 N 9.7 0.0
10:35 11.9 84.0 1025.4 3.2 N 8.0 0.0
10:40 12.2 83.0 1025.6 1.6 N 8.0 0.0
10:45 12.6 81.0 1025.5 0.0 N 8.0 0.0
10:50 12.8 79.0 1025.7 1.6 N 6.4 0.0
10:55 13.1 78.0 1025.5 3.2 N 9.7 0.0
11:00 13.3 77.0 1025.4 3.2 N 9.7 0.0
11:05 13.4 76.0 1025.6 4.8 N 11.3 0.0
11:10 13.4 76.0 1025.5 3.2 N 11.3 0.0
11:15 13.5 76.0 1025.4 3.2 N 11.3 0.0
11:20 13.6 75.0 1025.3 8.0 N 9.7 0.0
11:25 13.4 75.0 1025.3 1.6 N 9.7 0.0
11:35 13.2 75.0 1025.2 4.8 N 9.7 0.0
11:35 13.2 76.0 1025.2 8.0 N 12.9 0.0
11:40 13.2 75.0 1025.3 1.6 N 12.9 0.0
11:45 13.2 75.0 1025.1 1.6 N 8.0 0.0
11:50 13.2 75.0 1025.1 6.4 N 8.0 0.0
11:55 13.1 76.0 1025.2 1.6 N 9.7 0.0
12:00 13.3 76.0 1025.0 3.2 N 9.7 0.0
12:05 13.7 76.0 1025.1 0.0 N 4.8 0.0
12:10 14.0 73.0 1025.0 1.6 N 8.0 0.0
12:15 14.1 72.0 1024.9 3.2 N 9.7 0.0
12:20 14.0 72.0 1024.9 1.6 N 9.7 0.0
12:25 14.1 72.0 1024.9 4.8 N 8.0 0.0
12:30 14.2 73.0 1024.8 1.6 N 6.4 0.0
12:35 14.3 71.0 1024.7 4.8 N 8.0 0.0
12:40 14.3 71.0 1024.7 1.6 N 8.0 0.0
12:45 14.1 71.0 1024.7 6.4 N 11.3 0.0
12:50 14.0 72.0 1024.8 4.8 N 11.3 0.0
12:55 14.1 71.0 1024.7 1.6 N 9.7 0.0
13:00 14.1 71.0 1024.9 4.8 N 9.7 0.0
13:05 14.2 72.0 1024.8 1.6 N 4.8 0.0
13:10 14.4 71.0 1024.6 1.6 N 4.8 0.0
13:15 14.5 70.0 1024.5 6.4 N 6.4 0.0
13:20 14.3 70.0 1024.4 4.8 N 9.7 0.0
13:25 14.2 70.0 1024.3 3.2 N 9.7 0.0
13:30 14.4 69.0 1024.5 4.8 N 6.4 0.0
13:35 14.3 70.0 1024.6 1.6 N 6.4 0.0
13:40 14.5 70.0 1024.5 3.2 N 9.7 0.0
13:45 14.6 69.0 1024.6 3.2 N 6.4 0.0
13:50 14.4 69.0 1024.6 1.6 N 6.4 0.0
13:55 14.3 70.0 1024.6 1.6 N 8.0 0.0
14:00 14.3 70.0 1024.7 4.8 N 6.4 0.0
14:05 14.3 70.0 1024.7 4.8 N 6.4 0.0
14:10 14.2 70.0 1024.6 0.0 N 12.9 0.0
14:15 14.2 71.0 1024.6 1.6 N 12.9 0.0
14:20 14.3 70.0 1024.7 4.8 N 8.0 0.0
14:25 14.3 70.0 1024.7 3.2 N 8.0 0.0
14:30 14.3 70.0 1024.5 1.6 N 9.7 0.0
14:35 14.4 70.0 1024.5 1.6 N 9.7 0.0
14:40 14.3 70.0 1024.5 1.6 N 9.7 0.0
14:45 14.3 69.0 1024.5 4.8 N 9.7 0.0
14:50 14.0 70.0 1024.8 1.6 N 9.7 0.0
14:55 13.9 71.0 1024.7 1.6 N 6.4 0.0
15:00 13.9 71.0 1024.9 3.2 N 6.4 0.0
15:05 13.8 71.0 1024.9 1.6 N 12.9 0.0
15:10 13.7 71.0 1024.8 0.0 N 12.9 0.0
15:15 13.7 72.0 1024.7 1.6 N 6.4 0.0
15:20 13.6 72.0 1024.7 3.2 N 4.8 0.0
15:25 13.5 72.0 1025.0 1.6 N 6.4 0.0
15:30 13.4 73.0 1024.9 1.6 N 6.4 0.0
15:35 13.3 73.0 1025.0 1.6 N 6.4 0.0
15:40 13.2 74.0 1024.9 3.2 N 6.4 0.0
15:45 13.2 74.0 1024.8 3.2 N 6.4 0.0
15:50 13.1 74.0 1025.0 0.0 N 4.8 0.0
15:55 13.1 75.0 1025.0 0.0 N 4.8 0.0
16:00 13.0 75.0 1025.1 1.6 N 6.4 0.0
16:05 12.8 75.0 1025.1 1.6 N 6.4 0.0
16:10 12.6 76.0 1025.2 0.0 N 6.4 0.0
16:15 12.4 77.0 1025.1 0.0 N 4.8 0.0
16:20 12.2 78.0 1025.3 0.0 N 3.2 0.0
16:25 12.1 78.0 1025.3 0.0 N 3.2 0.0
16:30 11.9 79.0 1025.2 1.6 N 4.8 0.0
16:35 11.6 80.0 1025.3 0.0 N 4.8 0.0
16:40 11.3 80.0 1025.4 3.2 N 4.8 0.0
16:45 11.2 81.0 1025.3 1.6 N 4.8 0.0
16:50 10.9 82.0 1025.4 3.2 N 4.8 0.0
17:00 10.7 83.0 1025.4 1.6 N 4.8 0.0
17:05 10.6 83.0 1025.4 1.6 N 4.8 0.0
17:10 10.5 83.0 1025.4 0.0 N 3.2 0.0
17:15 10.4 84.0 1025.5 0.0 N 1.6 0.0
17:20 10.3 84.0 1025.6 3.2 N 3.2 0.0
17:25 10.4 85.0 1025.5 0.0 N 3.2 0.0
17:30 10.4 84.0 1025.5 0.0 N 3.2 0.0
17:35 10.3 84.0 1025.7 1.6 N 3.2 0.0
17:40 10.2 85.0 1025.4 1.6 N 3.2 0.0
17:45 10.2 85.0 1025.5 1.6 N 3.2 0.0
17:50 10.2 85.0 1025.5 1.6 N 3.2 0.0
17:55 10.3 85.0 1025.6 1.6 N 3.2 0.0
18:00 10.5 85.0 1025.8 1.6 N 3.2 0.0
18:05 10.7 84.0 1025.7 3.2 N 4.8 0.0
18:10 10.8 84.0 1025.7 1.6 N 6.4 0.0
18:15 10.9 83.0 1025.7 3.2 N 6.4 0.0
18:20 10.9 83.0 1025.8 1.6 N 6.4 0.0
18:25 11.0 83.0 1025.8 3.2 N 6.4 0.0
18:30 11.0 83.0 1025.9 1.6 N 6.4 0.0
18:35 10.9 83.0 1025.9 4.8 N 6.4 0.0
18:40 10.9 83.0 1026.0 1.6 N 8.0 0.0
18:45 10.9 84.0 1025.9 3.2 N 8.0 0.0
18:50 10.9 84.0 1026.0 3.2 N 6.4 0.0
18:55 10.8 84.0 1026.0 3.2 N 6.4 0.0
19:00 10.8 84.0 1025.9 3.2 N 6.4 0.0
19:05 10.8 84.0 1025.7 3.2 N 8.0 0.0
19:10 10.8 84.0 1025.7 3.2 N 8.0 0.0
19:15 10.8 84.0 1025.7 3.2 N 6.4 0.0
19:20 10.8 84.0 1025.8 3.2 N 6.4 0.0
19:25 10.9 84.0 1025.7 4.8 N 6.4 0.0
19:30 10.9 83.0 1025.7 3.2 N 6.4 0.0
19:35 10.9 83.0 1025.8 4.8 N 6.4 0.0
19:40 10.9 83.0 1025.7 4.8 N 6.4 0.0
19:40 10.8 82.0 1025.6 8.0 N 9.7 0.0
19:50 10.8 82.0 1025.6 4.8 N 9.7 0.0
19:55 10.8 82.0 1025.7 3.2 N 6.4 0.0
20:00 10.7 83.0 1025.7 3.2 N 4.8 0.0
20:05 10.7 83.0 1025.8 3.2 N 4.8 0.0
20:10 10.7 83.0 1025.7 3.2 N 4.8 0.0
20:15 10.6 83.0 1025.7 0.0 N 3.2 0.0
20:20 10.6 82.0 1025.8 1.6 N 3.2 0.0
20:25 10.4 83.0 1025.8 1.6 N 4.8 0.0
20:30 10.4 83.0 1025.8 1.6 N 3.2 0.0
20:35 10.4 84.0 1025.8 1.6 N 4.8 0.0
20:40 10.6 84.0 1025.8 4.8 N 4.8 0.0
20:45 10.7 84.0 1025.8 3.2 N 4.8 0.0
20:50 10.9 84.0 1025.7 3.2 N 6.4 0.0
20:55 11.2 83.0 1025.8 1.6 N 6.4 0.0
21:00 11.2 82.0 1025.8 4.8 N 6.4 0.0
21:05 11.2 82.0 1025.8 3.2 N 6.4 0.0
21:10 11.1 82.0 1025.9 1.6 N 6.4 0.0
21:15 11.0 82.0 1025.9 3.2 N 6.4 0.0
21:20 11.1 82.0 1026.0 4.8 N 4.8 0.0
21:25 11.2 82.0 1025.9 4.8 N 6.4 0.0
21:30 11.3 82.0 1025.8 1.6 N 8.0 0.0
21:35 11.4 81.0 1025.8 4.8 N 8.0 0.0
21:40 11.7 81.0 1025.7 3.2 N 6.4 0.0
21:45 11.8 80.0 1025.7 3.2 N 6.4 0.0
21:50 11.9 79.0 1025.7 3.2 N 4.8 0.0
21:55 11.9 79.0 1025.6 1.6 N 3.2 0.0
22:00 11.9 79.0 1025.6 4.8 N 4.8 0.0
22:05 11.9 79.0 1025.6 3.2 N 4.8 0.0
22:10 11.9 79.0 1025.7 1.6 N 4.8 0.0
22:15 12.0 79.0 1025.7 3.2 N 4.8 0.0
22:20 12.0 79.0 1025.8 4.8 N 6.4 0.0
22:25 12.0 78.0 1025.8 4.8 N 6.4 0.0
22:30 11.8 78.0 1025.8 1.6 N 4.8 0.0
22:35 11.7 79.0 1025.7 3.2 N 4.8 0.0
22:40 11.6 79.0 1025.6 3.2 N 4.8 0.0
22:45 11.6 80.0 1025.7 3.2 N 4.8 0.0
22:50 11.4 80.0 1025.7 3.2 N 4.8 0.0
22:55 11.2 81.0 1025.8 1.6 N 4.8 0.0
23:00 11.2 81.0 1025.7 3.2 N 4.8 0.0
23:05 11.1 81.0 1025.6 3.2 N 4.8 0.0
23:10 11.2 81.0 1025.6 4.8 N 4.8 0.0
23:15 11.2 81.0 1025.5 4.8 N 6.4 0.0
23:20 11.3 81.0 1025.6 3.2 N 6.4 0.0
23:25 11.4 80.0 1025.6 3.2 N 4.8 0.0
23:30 11.6 79.0 1025.6 3.2 N 4.8 0.0
23:35 11.6 79.0 1025.5 1.6 N 6.4 0.0
23:40 11.3 80.0 1025.5 4.8 N 6.4 0.0
Màxima 14.6 95.0 1026.0 8.0 N 12.9 0.0
Mínima 7.8 69.0 1022.1
Total 0.0